QPF
0.01 0.01 0.01 0.02 0.03 0.03 0.03 0.02 0.01 0.01 0.01 0.01 0.02 0.01 0.01 0.01 0.02 0.02 0.01 0.02 0.02 0.01 0.01 0.02 0.02 0.02 0.03 0.03 0.04 0.05 0.04 0.05 0.08 0.10 0.09 0.09 0.10 0.10 0.07 0.06 0.07 0.05 0.04 0.03
0.01 0.00 0.00 0.01 0.01 0.02 0.03 0.03 0.01 0.01 0.01 0.02 0.02 0.01 0.01 0.00 0.01 0.03 0.02 0.02 0.03 0.02 0.01 0.02 0.03 0.03 0.03 0.03 0.03 0.05 0.05 0.04 0.05 0.08 0.09 0.08 0.10 0.10 0.07 0.05 0.06 0.06 0.05 0.05
0.00 0.00 0.00 0.00 0.01 0.02 0.03 0.03 0.02 0.01 0.03 0.03 0.02 0.02 0.01 0.01 0.01 0.03 0.03 0.02 0.03 0.04 0.03 0.02 0.02 0.03 0.04 0.03 0.02 0.03 0.05 0.05 0.05 0.05 0.09 0.12 0.15 0.13 0.10 0.07 0.06 0.05 0.06 0.06
0.01 0.00 0.00 0.01 0.01 0.01 0.02 0.02 0.02 0.02 0.03 0.04 0.03 0.04 0.03 0.02 0.01 0.03 0.04 0.03 0.03 0.04 0.04 0.02 0.02 0.02 0.03 0.03 0.02 0.03 0.04 0.06 0.06 0.05 0.07 0.12 0.16 0.14 0.09 0.07 0.06 0.05 0.05 0.06
0.01 0.00 0.00 0.00 0.00 0.01 0.01 0.02 0.02 0.03 0.03 0.03 0.02 0.03 0.03 0.02 0.01 0.02 0.03 0.03 0.03 0.03 0.03 0.03 0.01 0.01 0.01 0.02 0.02 0.02 0.03 0.04 0.06 0.06 0.07 0.10 0.14 0.13 0.09 0.07 0.07 0.06 0.06 0.06
0.00 0.00 0.00 0.00 0.00 0.00 0.01 0.02 0.02 0.03 0.04 0.05 0.02 0.02 0.02 0.02 0.01 0.01 0.01 0.02 0.02 0.02 0.02 0.03 0.02 0.01 0.01 0.01 0.03 0.03 0.03 0.03 0.03 0.05 0.07 0.09 0.12 0.11 0.10 0.08 0.07 0.07 0.07 0.08
0.00 0.00 0.00 0.00 0.00 0.00 0.01 0.02 0.03 0.04 0.04 0.03 0.02 0.01 0.01 0.01 0.01 0.01 0.01 0.01 0.01 0.01 0.01 0.02 0.02 0.01 0.01 0.01 0.02 0.03 0.02 0.02 0.03 0.03 0.05 0.07 0.10 0.11 0.10 0.10 0.08 0.06 0.05 0.07
0.01 0.00 0.00 0.01 0.01 0.01 0.01 0.01 0.02 0.02 0.02 0.01 0.01 0.02 0.01 0.01 0.00 0.00 0.00 0.00 0.00 0.00 0.00 0.01 0.01 0.01 0.01 0.01 0.01 0.02 0.02 0.02 0.02 0.03 0.04 0.06 0.09 0.11 0.10 0.10 0.10 0.08 0.06 0.05
0.01 0.01 0.00 0.01 0.01 0.01 0.02 0.01 0.01 0.02 0.02 0.01 0.01 0.01 0.01 0.00 0.00 0.00 0.00 0.00 0.00 0.00 0.00 0.00 0.00 0.01 0.01 0.01 0.01 0.01 0.01 0.01 0.01 0.02 0.03 0.05 0.07 0.11 0.11 0.10 0.09 0.09 0.08 0.06
0.02 0.01 0.00 0.00 0.00 0.00 0.00 0.01 0.02 0.03 0.02 0.02 0.01 0.01 0.00 0.00 0.00 0.00 0.00 0.00 0.00 0.00 0.00 0.00 0.00 0.00 0.00 0.01 0.01 0.01 0.02 0.01 0.01 0.01 0.02 0.04 0.06 0.08 0.10 0.10 0.08 0.08 0.08 0.06
0.01 0.01 0.00 0.00 0.00 0.00 0.01 0.01 0.01 0.02 0.02 0.02 0.02 0.01 0.00 0.00 0.00 0.00 0.00 0.00 0.00 0.00 0.00 0.00 0.00 0.00 0.00 0.01 0.01 0.01 0.02 0.02 0.01 0.02 0.02 0.02 0.04 0.06 0.07 0.08 0.09 0.08 0.08 0.07
0.01 0.01 0.01 0.00 0.00 0.00 0.01 0.01 0.02 0.03 0.02 0.02 0.02 0.02 0.00 0.00 0.00 0.00 0.00 0.00 0.00 0.00 0.00 0.00 0.00 0.00 0.00 0.01 0.01 0.01 0.01 0.02 0.02 0.02 0.02 0.03 0.03 0.05 0.06 0.05 0.07 0.08 0.08 0.07
0.02 0.02 0.01 0.00 0.01 0.01 0.01 0.02 0.02 0.03 0.04 0.02 0.02 0.01 0.01 0.01 0.00 0.00 0.00 0.00 0.00 0.00 0.00 0.00 0.00 0.00 0.00 0.01 0.01 0.01 0.01 0.01 0.01 0.02 0.02 0.03 0.03 0.03 0.05 0.06 0.05 0.06 0.08 0.08
0.04 0.04 0.02 0.01 0.01 0.01 0.01 0.01 0.01 0.03 0.03 0.01 0.01 0.01 0.01 0.01 0.01 0.01 0.01 0.01 0.01 0.01 0.01 0.01 0.00 0.00 0.01 0.01 0.01 0.02 0.01 0.01 0.01 0.02 0.02 0.01 0.02 0.03 0.03 0.04 0.05 0.05 0.06 0.07
0.02 0.03 0.01 0.00 0.00 0.01 0.01 0.01 0.01 0.01 0.02 0.03 0.02 0.02 0.02 0.02 0.02 0.01 0.01 0.00 0.01 0.01 0.01 0.01 0.01 0.01 0.01 0.01 0.01 0.02 0.02 0.01 0.01 0.02 0.03 0.02 0.01 0.02 0.03 0.03 0.04 0.04 0.05 0.06
0.02 0.02 0.01 0.01 0.01 0.01 0.01 0.01 0.01 0.01 0.02 0.02 0.02 0.03 0.02 0.01 0.01 0.01 0.00 0.00 0.00 0.00 0.00 0.00 0.00 0.01 0.01 0.01 0.01 0.02 0.02 0.03 0.02 0.02 0.03 0.03 0.02 0.02 0.03 0.03 0.04 0.04 0.04 0.05
0.03 0.03 0.02 0.01 0.01 0.01 0.02 0.02 0.01 0.01 0.02 0.02 0.02 0.03 0.02 0.02 0.01 0.01 0.01 0.01 0.00 0.00 0.01 0.01 0.01 0.01 0.01 0.01 0.01 0.02 0.02 0.03 0.03 0.02 0.02 0.03 0.03 0.03 0.02 0.03 0.03 0.04 0.05 0.04
0.02 0.02 0.03 0.02 0.02 0.02 0.02 0.01 0.02 0.01 0.01 0.01 0.01 0.01 0.01 0.02 0.02 0.02 0.01 0.01 0.01 0.01 0.01 0.01 0.01 0.01 0.01 0.01 0.01 0.02 0.02 0.03 0.04 0.04 0.03 0.03 0.03 0.03 0.02 0.02 0.03 0.04 0.05 0.05
0.01 0.02 0.04 0.04 0.03 0.02 0.01 0.00 0.01 0.02 0.01 0.01 0.01 0.01 0.01 0.01 0.01 0.01 0.01 0.01 0.01 0.01 0.01 0.01 0.02 0.02 0.02 0.02 0.02 0.02 0.03 0.04 0.04 0.04 0.04 0.03 0.03 0.02 0.02 0.03 0.03 0.04 0.04 0.05
0.01 0.02 0.05 0.05 0.04 0.02 0.01 0.01 0.01 0.01 0.01 0.01 0.01 0.01 0.01 0.01 0.01 0.01 0.01 0.01 0.01 0.01 0.01 0.01 0.02 0.02 0.02 0.02 0.02 0.03 0.03 0.04 0.05 0.04 0.05 0.04 0.03 0.02 0.02 0.02 0.03 0.04 0.04 0.05
0.01 0.03 0.04 0.04 0.04 0.02 0.01 0.01 0.01 0.01 0.01 0.01 0.01 0.01 0.01 0.01 0.01 0.01 0.01 0.01 0.01 0.01 0.01 0.01 0.02 0.02 0.02 0.02 0.02 0.03 0.04 0.05 0.05 0.06 0.06 0.05 0.04 0.04 0.03 0.02 0.03 0.04 0.05 0.05
0.01 0.01 0.02 0.02 0.04 0.02 0.01 0.01 0.01 0.02 0.01 0.01 0.01 0.01 0.01 0.01 0.01 0.01 0.01 0.01 0.01 0.01 0.01 0.01 0.02 0.02 0.03 0.03 0.03 0.03 0.04 0.04 0.05 0.06 0.06 0.06 0.05 0.05 0.03 0.03 0.03 0.03 0.03 0.05
0.01 0.01 0.02 0.02 0.02 0.01 0.01 0.01 0.01 0.01 0.02 0.01 0.02 0.01 0.01 0.01 0.01 0.01 0.01 0.01 0.01 0.01 0.01 0.01 0.02 0.02 0.02 0.03 0.03 0.03 0.04 0.05 0.05 0.07 0.07 0.06 0.05 0.05 0.04 0.03 0.03 0.03 0.03 0.03
0.01 0.02 0.02 0.02 0.02 0.01 0.01 0.02 0.02 0.01 0.01 0.01 0.01 0.01 0.01 0.01 0.01 0.01 0.01 0.01 0.01 0.01 0.01 0.01 0.01 0.02 0.02 0.03 0.03 0.04 0.04 0.04 0.05 0.07 0.07 0.06 0.05 0.05 0.05 0.04 0.03 0.03 0.03 0.02
0.02 0.02 0.02 0.02 0.01 0.01 0.01 0.01 0.01 0.01 0.01 0.01 0.01 0.01 0.01 0.01 0.01 0.01 0.01 0.01 0.02 0.02 0.02 0.02 0.02 0.02 0.03 0.03 0.03 0.04 0.04 0.04 0.05 0.07 0.08 0.07 0.06 0.05 0.05 0.05 0.04 0.03 0.03 0.02
0.02 0.02 0.02 0.01 0.02 0.02 0.01 0.01 0.01 0.01 0.01 0.01 0.01 0.01 0.01 0.01 0.01 0.01 0.01 0.02 0.03 0.03 0.02 0.02 0.02 0.02 0.02 0.02 0.03 0.03 0.04 0.04 0.05 0.07 0.08 0.08 0.07 0.05 0.05 0.04 0.05 0.05 0.04 0.04
MSLP
1011.33 1011.57 1011.54 1011.26 1010.79 1010.19 1009.57 1008.99 1008.51 1008.17 1007.97 1007.89 1007.91 1008.00 1008.15 1008.33 1008.55 1008.81 1009.10 1009.43 1009.80 1010.20 1010.63 1011.07 1011.54 1012.05 1012.59 1013.20 1013.88 1014.63 1015.46 1016.32 1017.19 1018.03 1018.80 1019.48 1020.05 1020.51 1020.88 1021.20 1021.49 1021.79 1022.12 1022.50
1011.69 1011.97 1012.00 1011.78 1011.36 1010.80 1010.18 1009.57 1009.02 1008.57 1008.22 1007.99 1007.85 1007.81 1007.84 1007.94 1008.12 1008.38 1008.69 1009.06 1009.48 1009.91 1010.36 1010.81 1011.27 1011.75 1012.27 1012.86 1013.54 1014.30 1015.16 1016.07 1017.01 1017.92 1018.77 1019.51 1020.13 1020.62 1021.01 1021.34 1021.63 1021.92 1022.25 1022.63
1011.90 1012.20 1012.28 1012.12 1011.78 1011.28 1010.69 1010.07 1009.47 1008.92 1008.43 1008.03 1007.71 1007.49 1007.38 1007.38 1007.49 1007.72 1008.06 1008.47 1008.94 1009.44 1009.95 1010.44 1010.93 1011.42 1011.94 1012.53 1013.21 1013.99 1014.87 1015.83 1016.81 1017.78 1018.67 1019.46 1020.13 1020.66 1021.07 1021.42 1021.72 1022.02 1022.36 1022.73
1012.04 1012.33 1012.43 1012.34 1012.06 1011.64 1011.11 1010.50 1009.86 1009.22 1008.59 1008.01 1007.50 1007.08 1006.79 1006.65 1006.67 1006.86 1007.19 1007.65 1008.19 1008.78 1009.36 1009.93 1010.48 1011.02 1011.58 1012.20 1012.90 1013.69 1014.59 1015.57 1016.58 1017.57 1018.50 1019.33 1020.02 1020.59 1021.03 1021.41 1021.74 1022.06 1022.41 1022.79
1012.21 1012.45 1012.55 1012.50 1012.29 1011.93 1011.46 1010.87 1010.20 1009.47 1008.71 1007.95 1007.23 1006.60 1006.11 1005.81 1005.71 1005.83 1006.15 1006.65 1007.25 1007.93 1008.62 1009.29 1009.93 1010.55 1011.18 1011.83 1012.56 1013.38 1014.29 1015.27 1016.28 1017.28 1018.23 1019.07 1019.79 1020.39 1020.87 1021.28 1021.65 1022.01 1022.39 1022.80
1012.48 1012.64 1012.70 1012.65 1012.48 1012.18 1011.76 1011.19 1010.50 1009.70 1008.81 1007.88 1006.96 1006.12 1005.42 1004.94 1004.71 1004.75 1005.04 1005.54 1006.21 1006.97 1007.77 1008.55 1009.30 1010.01 1010.71 1011.42 1012.18 1013.01 1013.92 1014.90 1015.90 1016.89 1017.83 1018.68 1019.42 1020.05 1020.58 1021.03 1021.45 1021.86 1022.29 1022.73
1012.91 1012.95 1012.94 1012.86 1012.70 1012.42 1012.02 1011.47 1010.76 1009.90 1008.91 1007.83 1006.73 1005.70 1004.82 1004.16 1003.79 1003.73 1003.97 1004.47 1005.17 1006.00 1006.89 1007.78 1008.62 1009.43 1010.20 1010.96 1011.75 1012.59 1013.50 1014.45 1015.43 1016.40 1017.32 1018.17 1018.92 1019.58 1020.14 1020.66 1021.14 1021.61 1022.09 1022.58
1013.48 1013.38 1013.27 1013.13 1012.94 1012.66 1012.27 1011.73 1011.00 1010.10 1009.03 1007.84 1006.61 1005.42 1004.38 1003.58 1003.08 1002.93 1003.10 1003.58 1004.29 1005.17 1006.11 1007.07 1008.00 1008.87 1009.70 1010.50 1011.31 1012.15 1013.03 1013.95 1014.89 1015.83 1016.73 1017.57 1018.32 1019.00 1019.61 1020.17 1020.71 1021.25 1021.79 1022.34
1014.16 1013.91 1013.68 1013.45 1013.20 1012.90 1012.50 1011.95 1011.23 1010.30 1009.20 1007.95 1006.64 1005.36 1004.21 1003.30 1002.71 1002.47 1002.59 1003.03 1003.73 1004.61 1005.58 1006.58 1007.54 1008.45 1009.31 1010.12 1010.93 1011.74 1012.59 1013.47 1014.36 1015.26 1016.12 1016.94 1017.69 1018.38 1019.02 1019.62 1020.21 1020.79 1021.39 1021.99
1014.90 1014.50 1014.14 1013.81 1013.48 1013.13 1012.72 1012.17 1011.46 1010.55 1009.45 1008.20 1006.87 1005.56 1004.37 1003.42 1002.77 1002.47 1002.54 1002.94 1003.61 1004.46 1005.43 1006.42 1007.38 1008.29 1009.14 1009.93 1010.71 1011.48 1012.28 1013.09 1013.93 1014.76 1015.58 1016.36 1017.10 1017.78 1018.43 1019.05 1019.66 1020.28 1020.91 1021.55
1015.64 1015.12 1014.64 1014.19 1013.79 1013.39 1012.95 1012.42 1011.74 1010.87 1009.83 1008.64 1007.36 1006.09 1004.92 1003.98 1003.32 1003.01 1003.05 1003.41 1004.03 1004.85 1005.77 1006.72 1007.64 1008.51 1009.31 1010.05 1010.77 1011.47 1012.20 1012.94 1013.69 1014.46 1015.21 1015.93 1016.62 1017.28 1017.91 1018.52 1019.13 1019.75 1020.39 1021.04
1016.38 1015.75 1015.16 1014.63 1014.15 1013.71 1013.27 1012.75 1012.12 1011.33 1010.38 1009.29 1008.11 1006.94 1005.86 1004.97 1004.36 1004.06 1004.09 1004.42 1005.00 1005.76 1006.62 1007.51 1008.36 1009.15 1009.88 1010.54 1011.17 1011.79 1012.42 1013.06 1013.72 1014.39 1015.06 1015.71 1016.33 1016.92 1017.50 1018.06 1018.64 1019.23 1019.84 1020.47
1017.11 1016.41 1015.75 1015.15 1014.63 1014.16 1013.72 1013.24 1012.68 1011.98 1011.15 1010.19 1009.15 1008.11 1007.14 1006.36 1005.81 1005.55 1005.59 1005.91 1006.46 1007.16 1007.94 1008.74 1009.51 1010.21 1010.84 1011.41 1011.94 1012.44 1012.96 1013.49 1014.04 1014.59 1015.15 1015.70 1016.22 1016.73 1017.22 1017.71 1018.21 1018.74 1019.30 1019.88
1017.85 1017.13 1016.44 1015.81 1015.27 1014.81 1014.39 1013.96 1013.48 1012.89 1012.18 1011.36 1010.47 1009.57 1008.73 1008.05 1007.59 1007.38 1007.44 1007.75 1008.26 1008.90 1009.61 1010.33 1011.00 1011.60 1012.12 1012.58 1012.99 1013.38 1013.77 1014.17 1014.58 1015.01 1015.44 1015.86 1016.27 1016.67 1017.06 1017.45 1017.86 1018.30 1018.78 1019.31
1018.64 1017.94 1017.26 1016.65 1016.13 1015.70 1015.33 1014.97 1014.56 1014.08 1013.49 1012.79 1012.03 1011.26 1010.54 1009.96 1009.56 1009.40 1009.47 1009.77 1010.23 1010.82 1011.46 1012.08 1012.66 1013.16 1013.58 1013.92 1014.21 1014.47 1014.73 1015.00 1015.28 1015.57 1015.86 1016.15 1016.43 1016.70 1016.97 1017.26 1017.57 1017.92 1018.32 1018.77
1019.49 1018.84 1018.22 1017.67 1017.22 1016.85 1016.55 1016.26 1015.94 1015.54 1015.05 1014.45 1013.79 1013.11 1012.48 1011.96 1011.61 1011.46 1011.53 1011.79 1012.21 1012.73 1013.29 1013.84 1014.32 1014.72 1015.03 1015.27 1015.45 1015.59 1015.72 1015.85 1015.99 1016.14 1016.30 1016.46 1016.61 1016.77 1016.93 1017.11 1017.33 1017.59 1017.92 1018.30
1020.38 1019.83 1019.31 1018.86 1018.50 1018.22 1018.00 1017.79 1017.55 1017.22 1016.80 1016.27 1015.67 1015.04 1014.45 1013.95 1013.60 1013.44 1013.48 1013.69 1014.04 1014.49 1014.96 1015.42 1015.82 1016.13 1016.34 1016.48 1016.55 1016.58 1016.60 1016.61 1016.62 1016.65 1016.69 1016.73 1016.77 1016.82 1016.90 1016.99 1017.13 1017.33 1017.59 1017.92
1021.28 1020.86 1020.47 1020.14 1019.90 1019.73 1019.60 1019.47 1019.29 1019.02 1018.64 1018.14 1017.56 1016.94 1016.34 1015.83 1015.45 1015.24 1015.21 1015.35 1015.62 1015.98 1016.36 1016.73 1017.04 1017.26 1017.40 1017.45 1017.43 1017.36 1017.28 1017.18 1017.10 1017.02 1016.96 1016.91 1016.87 1016.85 1016.85 1016.89 1016.98 1017.13 1017.36 1017.66
1022.14 1021.86 1021.60 1021.41 1021.30 1021.24 1021.20 1021.15 1021.02 1020.78 1020.42 1019.93 1019.34 1018.71 1018.08 1017.52 1017.08 1016.80 1016.69 1016.74 1016.91 1017.17 1017.46 1017.74 1017.96 1018.11 1018.16 1018.14 1018.05 1017.91 1017.74 1017.58 1017.41 1017.26 1017.13 1017.02 1016.93 1016.86 1016.83 1016.84 1016.90 1017.04 1017.24 1017.51
1022.91 1022.76 1022.64 1022.58 1022.58 1022.62 1022.66 1022.66 1022.58 1022.36 1022.00 1021.51 1020.91 1020.24 1019.58 1018.97 1018.47 1018.11 1017.92 1017.87 1017.95 1018.11 1018.31 1018.50 1018.64 1018.71 1018.70 1018.61 1018.46 1018.27 1018.05 1017.83 1017.62 1017.42 1017.25 1017.10 1016.99 1016.90 1016.86 1016.87 1016.93 1017.06 1017.25 1017.52
1023.55 1023.51 1023.51 1023.55 1023.64 1023.76 1023.86 1023.90 1023.83 1023.62 1023.27 1022.77 1022.16 1021.48 1020.79 1020.15 1019.61 1019.20 1018.93 1018.81 1018.80 1018.87 1018.98 1019.09 1019.15 1019.16 1019.09 1018.95 1018.76 1018.53 1018.28 1018.03 1017.79 1017.57 1017.39 1017.23 1017.12 1017.04 1017.00 1017.02 1017.09 1017.23 1017.42 1017.69
1024.05 1024.09 1024.17 1024.28 1024.43 1024.59 1024.71 1024.76 1024.70 1024.50 1024.15 1023.66 1023.05 1022.38 1021.70 1021.06 1020.51 1020.08 1019.78 1019.60 1019.53 1019.54 1019.58 1019.61 1019.61 1019.56 1019.44 1019.27 1019.05 1018.79 1018.53 1018.26 1018.02 1017.80 1017.62 1017.48 1017.37 1017.31 1017.30 1017.33 1017.42 1017.57 1017.77 1018.02
1024.42 1024.51 1024.62 1024.77 1024.93 1025.09 1025.20 1025.24 1025.17 1024.96 1024.62 1024.15 1023.58 1022.96 1022.32 1021.73 1021.21 1020.80 1020.50 1020.31 1020.21 1020.17 1020.16 1020.14 1020.09 1019.99 1019.84 1019.64 1019.39 1019.13 1018.86 1018.60 1018.37 1018.16 1018.00 1017.87 1017.79 1017.75 1017.76 1017.82 1017.92 1018.08 1018.28 1018.52
1024.65 1024.76 1024.88 1025.02 1025.16 1025.29 1025.37 1025.38 1025.28 1025.07 1024.74 1024.31 1023.80 1023.25 1022.70 1022.19 1021.75 1021.40 1021.14 1020.97 1020.87 1020.82 1020.77 1020.72 1020.63 1020.49 1020.31 1020.09 1019.84 1019.58 1019.31 1019.07 1018.85 1018.66 1018.52 1018.42 1018.37 1018.36 1018.39 1018.47 1018.59 1018.76 1018.96 1019.19
1024.77 1024.87 1024.98 1025.09 1025.19 1025.26 1025.29 1025.25 1025.13 1024.91 1024.61 1024.23 1023.79 1023.34 1022.90 1022.50 1022.17 1021.91 1021.72 1021.60 1021.52 1021.46 1021.41 1021.33 1021.21 1021.06 1020.86 1020.62 1020.37 1020.11 1019.86 1019.64 1019.44 1019.29 1019.18 1019.11 1019.08 1019.10 1019.16 1019.26 1019.40 1019.58 1019.78 1020.02
1024.76 1024.84 1024.93 1025.00 1025.06 1025.09 1025.07 1024.99 1024.84 1024.63 1024.35 1024.03 1023.68 1023.34 1023.01 1022.74 1022.52 1022.35 1022.25 1022.18 1022.13 1022.09 1022.03 1021.94 1021.80 1021.63 1021.42 1021.18 1020.93 1020.69 1020.46 1020.27 1020.11 1019.99 1019.91 1019.88 1019.89 1019.94 1020.03 1020.16 1020.32 1020.51 1020.73 1020.97
Thickness
5535 5525 5522 5527 5529 5529 5526 5523 5524 5528 5530 5524 5521 5524 5527 5528 5526 5526 5525 5525 5526 5529 5532 5534 5535 5536 5538 5539 5540 5543 5545 5547 5550 5552 5553 5555 5556 5558 5559 5561 5563 5565 5566 5566
5517 5516 5524 5524 5522 5521 5519 5515 5514 5518 5521 5516 5510 5513 5519 5519 5518 5519 5519 5517 5518 5519 5520 5523 5525 5526 5528 5530 5531 5534 5535 5538 5540 5542 5544 5547 5547 5548 5550 5552 5553 5555 5557 5557
5512 5516 5521 5517 5511 5509 5508 5507 5507 5506 5508 5506 5501 5503 5510 5513 5511 5511 5511 5510 5510 5512 5512 5514 5515 5516 5518 5521 5522 5525 5526 5528 5530 5532 5534 5536 5537 5538 5540 5541 5543 5545 5547 5548
5504 5509 5511 5507 5504 5502 5500 5504 5502 5498 5493 5487 5492 5486 5502 5504 5501 5500 5499 5498 5500 5501 5503 5505 5506 5507 5509 5512 5513 5515 5517 5519 5520 5522 5523 5526 5528 5529 5531 5532 5533 5535 5537 5538
5496 5499 5499 5498 5499 5497 5494 5496 5492 5490 5484 5476 5478 5475 5489 5492 5492 5493 5491 5491 5491 5493 5495 5497 5498 5499 5500 5502 5503 5505 5507 5509 5510 5512 5514 5515 5517 5518 5520 5521 5523 5524 5526 5528
5490 5492 5491 5490 5492 5491 5487 5482 5479 5470 5465 5464 5472 5468 5476 5479 5488 5490 5487 5485 5484 5484 5485 5487 5488 5488 5489 5491 5492 5494 5496 5499 5500 5502 5504 5505 5507 5508 5508 5511 5512 5514 5515 5516
5477 5481 5482 5482 5479 5478 5474 5464 5455 5453 5447 5457 5465 5463 5470 5478 5479 5480 5480 5477 5474 5473 5474 5475 5476 5477 5478 5479 5481 5483 5485 5488 5489 5491 5492 5495 5496 5498 5499 5501 5503 5504 5505 5506
5460 5463 5469 5470 5469 5463 5461 5457 5448 5445 5443 5445 5450 5452 5465 5469 5469 5468 5468 5466 5464 5463 5463 5465 5466 5467 5467 5469 5471 5472 5474 5476 5478 5479 5481 5483 5485 5487 5489 5491 5493 5494 5496 5497
5447 5454 5460 5461 5461 5459 5452 5446 5446 5434 5427 5426 5439 5443 5455 5460 5458 5456 5455 5454 5453 5453 5454 5454 5456 5457 5457 5459 5460 5461 5463 5465 5466 5468 5470 5471 5474 5476 5478 5480 5481 5484 5485 5486
5439 5436 5444 5446 5450 5448 5445 5438 5428 5426 5424 5426 5431 5432 5444 5452 5449 5446 5443 5442 5442 5444 5443 5443 5444 5446 5447 5448 5449 5450 5452 5454 5455 5457 5458 5461 5462 5464 5466 5468 5469 5472 5474 5475
5430 5424 5427 5430 5430 5430 5429 5427 5422 5415 5414 5415 5417 5432 5442 5442 5440 5436 5434 5433 5431 5431 5432 5432 5432 5434 5435 5436 5437 5438 5440 5441 5444 5446 5447 5448 5450 5452 5454 5455 5457 5459 5462 5464
5419 5409 5407 5416 5421 5421 5419 5416 5410 5408 5406 5400 5404 5420 5432 5428 5425 5424 5423 5423 5422 5421 5420 5420 5421 5421 5422 5424 5425 5426 5428 5430 5432 5433 5435 5436 5438 5439 5441 5443 5445 5447 5450 5452
5411 5400 5400 5410 5410 5405 5404 5402 5400 5397 5394 5390 5396 5410 5417 5411 5411 5411 5411 5410 5410 5409 5409 5408 5408 5409 5410 5411 5412 5414 5415 5417 5419 5421 5423 5424 5426 5427 5429 5431 5433 5436 5438 5440
5406 5391 5392 5401 5404 5394 5389 5390 5389 5388 5383 5382 5389 5399 5407 5401 5398 5398 5397 5397 5396 5397 5397 5397 5396 5397 5398 5398 5399 5401 5403 5405 5407 5409 5411 5413 5414 5416 5418 5419 5421 5424 5427 5428
5392 5383 5381 5385 5389 5384 5381 5383 5381 5379 5380 5384 5390 5387 5396 5391 5388 5386 5384 5384 5385 5385 5386 5386 5385 5385 5385 5387 5388 5389 5391 5393 5396 5398 5400 5401 5403 5405 5406 5408 5410 5412 5414 5417
5376 5373 5373 5374 5380 5375 5375 5378 5377 5376 5374 5373 5375 5379 5385 5380 5376 5374 5373 5373 5373 5374 5374 5374 5374 5374 5374 5375 5377 5378 5380 5382 5384 5387 5388 5390 5391 5393 5395 5396 5398 5399 5401 5404
5365 5363 5364 5366 5366 5367 5369 5372 5368 5364 5361 5364 5370 5379 5373 5370 5370 5367 5366 5365 5364 5364 5362 5362 5362 5363 5363 5363 5365 5366 5368 5370 5373 5375 5377 5378 5380 5381 5383 5385 5386 5387 5389 5392
5357 5355 5351 5352 5352 5355 5374 5366 5362 5358 5357 5356 5360 5362 5362 5363 5361 5358 5356 5354 5354 5354 5352 5352 5351 5352 5352 5352 5353 5355 5357 5360 5362 5363 5365 5367 5368 5370 5372 5373 5374 5376 5377 5379
5354 5349 5342 5340 5338 5348 5362 5361 5353 5351 5354 5350 5350 5353 5352 5350 5349 5350 5348 5346 5345 5344 5343 5341 5341 5341 5341 5342 5343 5344 5346 5348 5350 5352 5354 5356 5357 5359 5360 5361 5362 5364 5365 5367
5344 5339 5334 5329 5335 5346 5362 5354 5346 5345 5347 5350 5345 5345 5342 5341 5343 5347 5342 5337 5335 5334 5333 5332 5331 5331 5331 5332 5333 5334 5335 5336 5338 5341 5343 5345 5346 5347 5349 5350 5350 5352 5354 5355
5334 5327 5324 5321 5323 5338 5346 5339 5339 5341 5351 5346 5340 5338 5333 5332 5335 5334 5329 5327 5324 5324 5323 5323 5322 5322 5322 5323 5324 5324 5325 5326 5328 5330 5332 5333 5335 5336 5337 5338 5338 5340 5341 5342
5332 5324 5319 5316 5317 5335 5336 5330 5332 5337 5336 5333 5331 5329 5326 5325 5322 5320 5318 5317 5315 5313 5313 5313 5312 5312 5313 5314 5315 5315 5315 5317 5318 5319 5321 5322 5323 5324 5325 5325 5326 5327 5328 5328
5328 5331 5327 5326 5335 5334 5325 5325 5325 5323 5323 5323 5322 5321 5318 5315 5313 5311 5309 5307 5306 5304 5303 5303 5303 5303 5303 5303 5305 5304 5305 5306 5307 5308 5309 5310 5311 5312 5313 5314 5315 5314 5314 5315
5323 5320 5318 5315 5323 5321 5317 5315 5315 5314 5314 5315 5314 5312 5310 5308 5306 5303 5300 5298 5296 5295 5294 5293 5293 5293 5293 5294 5294 5294 5295 5296 5297 5297 5298 5299 5299 5300 5301 5302 5302 5302 5302 5302
5322 5312 5310 5311 5313 5312 5315 5311 5311 5309 5307 5306 5304 5303 5302 5299 5296 5294 5292 5289 5287 5287 5286 5285 5284 5284 5284 5284 5283 5284 5284 5285 5285 5286 5286 5287 5288 5288 5288 5289 5289 5290 5290 5291
5311 5308 5308 5316 5314 5309 5312 5309 5305 5302 5301 5298 5296 5294 5292 5290 5287 5285 5282 5281 5279 5277 5277 5277 5276 5276 5274 5274 5273 5274 5274 5274 5275 5275 5275 5275 5276 5276 5276 5276 5275 5276 5277 5278